Shishmaref, AK

10:29 PM AKDT on September 19, 2017 (GMT -0800)
New Shishmaref

Weather History for PASH - July, 2013

Change the Weather History Date:

Saturday, July 20, 2013

  Actual Average Record
Temperature  
Mean Temperature 50 °F -  
Max Temperature 55 °F 52 °F 64 °F (2001)
Min Temperature 46 °F 44 °F 39 °F (2008)
Degree Days  
Heating Degree Days 14    
Moisture  
Dew Point 45 °F    
Average Humidity 84    
Maximum Humidity 93    
Minimum Humidity 72    
Precipitation  
Precipitation 0.06 in - - ()
Sea Level Pressure  
Sea Level Pressure 30.13 in    
Wind  
Wind Speed 12 mph (SW)    
Max Wind Speed 17 mph    
Max Gust Speed 23 mph    
Visibility 10 miles    
Events      
Averages and records for this station are not official NWS values.
T = Trace of Precipitation, MM = Missing Value Source: NWS Daily Summary

Daily Weather History Graph

Daily Weather History Graph

Search for Another Location

Airport or City:

Trip Planner

Search our weather history database for the weather conditions in past years. The results will help you decide how hot, cold, wet, or windy it might be!

Date:

Astronomy

Jul. 20, 2013 Rise Set
Actual Time 4:58 AM AKDT 1:19 AM AKDT
Civil Twilight Sun does not set Sun does not set
Nautical Twilight Sun does not set Sun does not set
Astronomical Twilight Sun does not set Sun does not set
Moon 11:11 PM AKDT 3:04 AM AKDT
Length of Visible Light 24h 00m
Length of Day
20h 20m
Waxing Gibbous, 94% of the Moon is Illuminated
Jul 20
Waxing Gibbous
Jul 22
Full
Jul 29
Last Quarter
Aug 6
New
Aug 14
First Quarter

Hourly Weather History & Observations

Time (AKDT) Temp. Windchill Dew Point Humidity Pressure Visibility Wind Dir Wind Speed Gust Speed Precip Events Conditions
12:16 AM 50.0 °F - 46.4 °F 87% 30.18 in 10.0 mi West 11.5 mph - N/A   Overcast
12:36 AM 50.0 °F - 46.4 °F 87% 30.18 in 10.0 mi WSW 9.2 mph - N/A   Overcast
12:56 AM 50.0 °F - 46.4 °F 87% 30.18 in 10.0 mi WSW 9.2 mph - N/A   Overcast
1:16 AM 48.2 °F - 44.6 °F 87% 30.18 in 10.0 mi SW 9.2 mph - N/A   Overcast
1:36 AM 48.2 °F - 44.6 °F 87% 30.18 in 10.0 mi SW 10.4 mph - N/A   Overcast
1:56 AM 48.2 °F - 44.6 °F 87% 30.18 in 10.0 mi SW 10.4 mph - N/A   Overcast
2:16 AM 48.2 °F - 44.6 °F 87% 30.18 in 10.0 mi SW 9.2 mph - N/A   Overcast
2:36 AM 46.4 °F 41.9 °F 44.6 °F 93% 30.18 in 10.0 mi SW 9.2 mph - N/A   Mostly Cloudy
2:56 AM 46.4 °F 41.5 °F 44.6 °F 93% 30.19 in 10.0 mi SW 10.4 mph - N/A   Mostly Cloudy
3:16 AM 46.4 °F 41.9 °F 42.8 °F 87% 30.18 in 10.0 mi SW 9.2 mph - N/A   Mostly Cloudy
3:36 AM 46.4 °F 41.9 °F 42.8 °F 87% 30.18 in 10.0 mi SW 9.2 mph - N/A   Clear
3:56 AM 46.4 °F 41.9 °F 42.8 °F 87% 30.18 in 10.0 mi SW 9.2 mph - N/A   Clear
4:16 AM 46.4 °F 41.9 °F 42.8 °F 87% 30.18 in 10.0 mi SW 9.2 mph - N/A   Clear
4:36 AM 46.4 °F 41.9 °F 42.8 °F 87% 30.18 in 10.0 mi SW 9.2 mph - N/A   Clear
4:56 AM 46.4 °F 41.9 °F 42.8 °F 87% 30.18 in 10.0 mi SW 9.2 mph - N/A   Clear
5:16 AM 46.4 °F 40.1 °F 42.8 °F 87% 30.18 in 10.0 mi SSW 15.0 mph - N/A   Clear
5:36 AM 46.4 °F 40.1 °F 44.6 °F 93% 30.17 in 10.0 mi SW 15.0 mph 19.6 mph N/A   Mostly Cloudy
5:56 AM 46.4 °F 40.1 °F 44.6 °F 93% 30.17 in 10.0 mi SW 15.0 mph - N/A   Overcast
6:16 AM 46.4 °F 40.1 °F 44.6 °F 93% 30.17 in 10.0 mi SW 15.0 mph - N/A   Mostly Cloudy
6:36 AM 46.4 °F 41.9 °F 44.6 °F 93% 30.17 in 10.0 mi SSW 9.2 mph - N/A   Overcast
6:56 AM 48.2 °F - 44.6 °F 87% 30.17 in 10.0 mi SSW 10.4 mph - N/A   Overcast
7:16 AM 48.2 °F - 44.6 °F 87% 30.16 in 10.0 mi SSW 15.0 mph 18.4 mph N/A   Overcast
7:36 AM 48.2 °F - 44.6 °F 87% 30.16 in 10.0 mi SW 15.0 mph - N/A   Mostly Cloudy
7:56 AM 48.2 °F - 44.6 °F 87% 30.16 in 10.0 mi SW 12.7 mph - N/A   Clear
8:16 AM 48.2 °F - 44.6 °F 87% 30.16 in 10.0 mi SW 10.4 mph - N/A   Clear
8:36 AM 48.2 °F - 44.6 °F 87% 30.15 in 10.0 mi SSW 15.0 mph - N/A   Partly Cloudy
8:56 AM 48.2 °F - 44.6 °F 87% 30.15 in 10.0 mi SW 11.5 mph - N/A   Partly Cloudy
9:16 AM 48.2 °F - 44.6 °F 87% 30.15 in 10.0 mi SSW 10.4 mph - N/A   Clear
9:36 AM 50.0 °F - 44.6 °F 82% 30.15 in 10.0 mi SSW 10.4 mph - N/A   Scattered Clouds
9:56 AM 48.2 °F - 44.6 °F 87% 30.15 in 10.0 mi SSW 12.7 mph - N/A   Mostly Cloudy
10:16 AM 48.2 °F - 44.6 °F 87% 30.15 in 10.0 mi SW 11.5 mph - N/A   Mostly Cloudy
10:36 AM 48.2 °F - 42.8 °F 82% 30.15 in 10.0 mi SW 13.8 mph - N/A   Scattered Clouds
10:56 AM 50.0 °F - 44.6 °F 82% 30.14 in 10.0 mi SSW 15.0 mph - N/A   Scattered Clouds
11:16 AM 50.0 °F - 44.6 °F 82% 30.14 in 10.0 mi SSW 16.1 mph - N/A   Mostly Cloudy
11:36 AM 51.8 °F - 44.6 °F 76% 30.14 in 10.0 mi SSW 15.0 mph - N/A   Overcast
11:56 AM 51.8 °F - 44.6 °F 76% 30.14 in 10.0 mi SSW 12.7 mph - N/A   Mostly Cloudy
12:16 PM 51.8 °F - 44.6 °F 76% 30.13 in 10.0 mi SW 11.5 mph - N/A   Overcast
12:36 PM 50.0 °F - 44.6 °F 82% 30.14 in 9.0 mi SSW 16.1 mph - 0.01 in   Overcast
12:56 PM 48.2 °F - 44.6 °F 87% 30.13 in 10.0 mi SSW 15.0 mph - 0.02 in   Overcast
1:16 PM 48.2 °F - 44.6 °F 87% 30.14 in 10.0 mi SW 13.8 mph - 0.01 in   Overcast
1:36 PM 48.2 °F - 44.6 °F 87% 30.13 in 10.0 mi SSW 12.7 mph - 0.02 in   Overcast
1:56 PM 48.2 °F - 44.6 °F 87% 30.12 in 10.0 mi SSW 13.8 mph - 0.02 in   Overcast
2:16 PM 48.2 °F - 44.6 °F 87% 30.12 in 10.0 mi SSW 13.8 mph - N/A   Overcast
2:36 PM 50.0 °F - 46.4 °F 87% 30.12 in 10.0 mi SSW 12.7 mph 17.3 mph N/A   Overcast
2:56 PM 50.0 °F - 46.4 °F 87% 30.11 in 10.0 mi SSW 13.8 mph - N/A   Overcast
3:16 PM 50.0 °F - 46.4 °F 87% 30.11 in 10.0 mi South 13.8 mph - N/A   Overcast
3:36 PM 51.8 °F - 46.4 °F 82% 30.10 in 10.0 mi SSW 13.8 mph - N/A   Overcast
3:56 PM 51.8 °F - 46.4 °F 82% 30.10 in 10.0 mi SSW 13.8 mph - N/A   Overcast
4:16 PM 51.8 °F - 46.4 °F 82% 30.09 in 10.0 mi SSW 17.3 mph - N/A   Overcast
4:36 PM 51.8 °F - 46.4 °F 82% 30.09 in 10.0 mi SSW 13.8 mph - N/A   Overcast
4:56 PM 51.8 °F - 46.4 °F 82% 30.08 in 10.0 mi SSW 16.1 mph - N/A   Overcast
5:16 PM 51.8 °F - 46.4 °F 82% 30.08 in 10.0 mi SSW 11.5 mph - N/A   Overcast
5:36 PM 53.6 °F - 46.4 °F 77% 30.08 in 10.0 mi SSW 15.0 mph - N/A   Overcast
5:56 PM 53.6 °F - 46.4 °F 77% 30.08 in 10.0 mi SSW 12.7 mph - N/A   Overcast
6:16 PM 55.4 °F - 46.4 °F 72% 30.07 in 10.0 mi SSW 15.0 mph - N/A   Overcast
6:36 PM 53.6 °F - 46.4 °F 77% 30.07 in 10.0 mi SSW 16.1 mph - N/A   Overcast
6:56 PM 53.6 °F - 46.4 °F 77% 30.07 in 10.0 mi SSW 12.7 mph - N/A   Overcast
7:16 PM 53.6 °F - 44.6 °F 72% 30.07 in 10.0 mi SW 16.1 mph - N/A   Overcast
7:36 PM 51.8 °F - 44.6 °F 76% 30.07 in 10.0 mi SW 17.3 mph 23.0 mph N/A   Overcast
7:56 PM 51.8 °F - 46.4 °F 82% 30.07 in 9.0 mi SW 15.0 mph - 0.01 in   Overcast
8:16 PM 50.0 °F - 44.6 °F 82% 30.07 in 10.0 mi SW 13.8 mph 19.6 mph 0.01 in   Overcast
8:36 PM 51.8 °F - 44.6 °F 76% 30.07 in 10.0 mi SW 16.1 mph - 0.01 in   Overcast
8:56 PM 51.8 °F - 44.6 °F 76% 30.07 in 10.0 mi SW 17.3 mph 20.7 mph 0.01 in   Overcast
9:16 PM 51.8 °F - 46.4 °F 82% 30.07 in 10.0 mi SSW 12.7 mph - N/A   Overcast
9:36 PM 51.8 °F - 46.4 °F 82% 30.07 in 10.0 mi SSW 15.0 mph - N/A   Overcast
9:56 PM 51.8 °F - 44.6 °F 76% 30.07 in 10.0 mi SSW 13.8 mph 19.6 mph N/A   Overcast
10:16 PM 51.8 °F - 46.4 °F 82% 30.07 in 10.0 mi SSW 12.7 mph - N/A   Overcast
10:36 PM 51.8 °F - 46.4 °F 82% 30.07 in 10.0 mi SSW 10.4 mph - N/A   Overcast
10:56 PM 50.0 °F - 44.6 °F 82% 30.07 in 10.0 mi SSW 12.7 mph - N/A   Overcast
11:16 PM 50.0 °F - 44.6 °F 82% 30.08 in 10.0 mi SW 11.5 mph - N/A   Overcast
11:36 PM 50.0 °F - 44.6 °F 82% 30.08 in 10.0 mi SW 10.4 mph - N/A   Overcast
11:56 PM 50.0 °F - 44.6 °F 82% 30.08 in 10.0 mi SW 8.1 mph - N/A   Overcast